Tracking 27428 objects as of 31-May-2023
HD Live streaming from Space Station
objects crossing your sky now

STARLINK-4646

Track STARLINK-4646 now!
10-day predictions
STARLINK-4646 is classified as:


NORAD ID: 53737
Int'l Code: 2022-107AP
Perigee: 546.2 km
Apogee: 547.6 km
Inclination: 53.2 °
Period: 95.4 minutes
Semi major axis: 6917 km
RCS: Unknown
Launch date: September 5, 2022
Source: United States (US)
Launch site: AIR FORCE EASTERN TEST RANGE (AFETR)
Your satellite tracking list
Your tracking list is empty




NASA's NSSDC Master Catalog

Two Line Element Set (TLE):
1 53737U 22107AP  23150.27695063  .00000040  00000-0  20575-4 0  9993
2 53737  53.2150 137.8479 0000979  88.8322 271.2782 15.08838774 41452
Source of the keplerian elements: AFSPC